Regional Weather Roundup
Issued by NWS Charleston, SC

Current Version | Previous Version | Graphics & Text | Print | Product List | Glossary On
Versions: 1 2 3 4 5 6 7 8 9 10 11 12 13 14 15 16 17 18 19 20 21 22 23 24 25 26 27 28 29 30 31 32 33 34 35 36 37 38 39 40 41 42 43 44 45 46 47 48 49 50
000 ASUS42 KCHS 301128 RWRCHS REGIONAL WEATHER ROUNDUP NATIONAL WEATHER SERVICE CHARLESTON SC 700 AM EDT SAT APR 30 2016 NOTE: "FAIR" INDICATES FEW OR NO CLOUDS BELOW 12,000 FEET WITH NO SIGNIFICANT WEATHER AND/OR OBSTRUCTIONS TO VISIBILITY. NOT ALL STATIONS ARE QUALITY CONTROLLED. USE DATA WITH CAUTION... ESPECIALLY DEWPOINT OBSERVATIONS. SCZ027-030-031-034>040-042>050-301200- ...SOUTHEAST SOUTH CAROLINA... CITY SKY/WX TMP DP RH WIND PRES REMARKS N CHARLESTON PTCLDY 70 68 93 SE5 30.02R FOG WATERFRONT PRK N/A 71 71 100 VRB3 29.99R MOUNT PLEASANT FAIR 64 64 100 CALM 30.03R FOG JOHNS ISLAND FOG 68 68 100 CALM 30.02R VSB<1/4 PINOPOLIS NOT AVBL MONCKS CORNER RAIN 63 61 94 CALM 30.02R VSB<1/4 SUMMERVILLE FOG 66 66 100 CALM 30.03R VSB 1/4 BEAUFORT MCAS CLOUDY 70 69 97 CALM 30.00R FOG BEAUFORT ARPT FAIR 70 70 100 CALM 30.00R FOG HILTON HEAD IS CLOUDY 72 72 100 S3 30.01R WALTERBORO FOG 70 70 100 E3 30.03R VSB<1/4 ALLENDALE CLOUDY 70 68 94 SE5 29.99S FOG ...SOUTHERN MIDLANDS AND PEE DEE... CITY SKY/WX TMP DP RH WIND PRES REMARKS GEORGETOWN FAIR 61 59 94 CALM 30.04R KINGSTREE FOG 68 64 88 SE5 30.03R VSB 1/2 ORANGEBURG CLOUDY 67 65 93 SE5 30.01R FOG BARNWELL CLOUDY 70 70 100 E7 30.00R FOG AIKEN FOG 63 63 100 SE6 30.02R VSB<1/4 MANNING NOT AVBL COLUMBIA FOG 66 64 93 SE6 29.99S VSB 1/4 SUMTER CLOUDY 68 64 88 S6 30.00R FLORENCE MOCLDY 68 66 93 E7 30.05R MYRTLE BEACH MOCLDY 68 63 83 VRB6 30.07R N MYRTLE BEACH CLOUDY 65 63 93 NE8 30.06R FOG $$ GAZ063-065-086>088-099>101-113>116-118-119-134>141-150-301200- ...SOUTHEAST GEORGIA... CITY SKY/WX TMP DP RH WIND PRES REMARKS SAVANNAH ARPT MOCLDY 70 68 93 E6 29.99R FOG HUNTER AAF CLEAR 71 71 100 E3 29.96R FORT STEWART FOG 68 67 98 CALM 29.96R VSB<1/4 STATESBORO FOG 69 69 100 SE3 29.98R VSB<1/4 SYLVANIA FOG 69 69 100 SE5 30.00R VSB<1/4 CLAXTON FOG 64 64 100 CALM 29.98R VSB<1/4 ...CSRA...CENTRAL AND FAR SOUTHEAST GEORGIA... CITY SKY/WX TMP DP RH WIND PRES REMARKS THOMSON PTCLDY 64 63 98 CALM 30.00R AUGUSTA-BUSH FOG 63 63 100 SE3 29.96S VSB<1/4 AUGUSTA-DANIEL CLOUDY 66 63 90 SE8 29.98R FOG SWAINSBORO FAIR 68 64 88 SE5 29.97R VIDALIA PTCLDY 68 64 88 SE6 29.96S FOG EASTMAN FAIR N/A N/A N/A SE8 29.96S FOG HAZLEHURST FAIR 69 69 100 S3 29.95R FOG ALMA FOG 66 66 100 SE3 29.96R VSB 1 WAYCROSS CLEAR 66 66 100 CALM 29.97R FOG JESUP FOG 68 68 100 CALM 29.99R VSB<1/4 BAXLEY FAIR 68 68 100 CALM 29.96R FOG BRUNSWICK FOG 64 64 100 CALM 29.99R VSB<1/4 SAINT SIMONS FOG 71 71 100 E3 29.99R VSB 1 $$ SCZ027-028-034-036>038-045-046-048>050-GAZ119-141-301200- ...LAKE AND SUPPLEMENTAL COASTAL OBSERVATIONS... STATION/POSITION TIME TEMP WIND PRES WAVE SWELL AIR SEA DIR/SP/G HT/PER HT/PER/DIR (UTC) (F) (DEG/KT/KT) (MB) (FT/S) (FT/S/D) WINYAH BAY 0945 70 120/ 3 1015.0 LAKE MURRAY 1000 68 120/ 3/ 5 1015.2R ACE BASIN NERRS 1045 67 CALM 1016.0R FORT PULASKI 1100 72 72 120/ 4/ 6 1016.0R SAPELO ISLAND 1000 68 CALM 1014.0S $$ ANZ835-935-AMZ111-154-330-350-352-354-370-450-454-472-301200- ...C-MAN AND BUOY OBSERVATIONS... STATION/POSITION TIME TEMP WIND PRES WAVE SWELL AIR SEA DIR/SP/G HT/PER HT/PER/DIR (UTC) (F) (DEG/KT/KT) (MB) (FT/S) (FT/S/D) BUOY 41004 1050 73 72 140/ 4/ 4 1015.6R 2/ 9 2/ 9 BUOY 41008 NOT AVBL FOLLY BEACH CMAN 1100 71 100/ 6/ 6 1016.6R CAPERS NEARSHORE 1008 70 71 100/ 4/ 6 1015.6R FRIPP NEARSHORE 1108 72 72 140/ 4/ 6 1015.6R STATION/POSITION TIME TEMP WIND PRES WAVE SWELL AIR SEA DIR/SP/G HT/PER HT/PER/DIR (UTC) (F) (DEG/KT/KT) (MB) (FT/S) (FT/S/D) 5E ST. MARYS GA 1021 72 N/A 1/ 9 FRYING PAN BUOY 1100 70 70 30/ 8/ 10 1017.4R BUOY 41025 1050 60 74 20/ 16/ 21 1018.9R 5/ 8 2/ 40/ 8 CAPE LOOKOUT NC 1100 60 20/ 9/ 11 1019.1R BUOY 41002 1050 70 71 70/ 10/ 14 1016.8R 3/11 2/ 40/11 BUOY 41010 1020 75 77 180/ 4/ 6 1015.6R ST AUGUSTINE FL 1100 73 70 130/ 6/ 6 1015.7R $$

USA.gov is the U.S. government's official web portal to all federal, state and local government web resources and services.